Weather History for KMRT - September, 2012

Change the Weather History Date:

Sunday, September 30, 2012

  Actual Average (KDLZ) Record (KDLZ)
Temperature  
Mean Temperature 53 °F -  
Max Temperature 66 °F 71 °F 92 °F (1953)
Min Temperature 40 °F 44 °F 30 °F (1963)
Degree Days  
Heating Degree Days 12    
Growing Degree Days 3 (Base 50)    
Moisture  
Dew Point 42 °F    
Average Humidity 67    
Maximum Humidity 94    
Minimum Humidity 34    
Precipitation  
Precipitation 0.01 in - - ()
Sea Level Pressure  
Sea Level Pressure 29.90 in    
Wind  
Wind Speed 4 mph (NNE)    
Max Wind Speed 13 mph    
Max Gust Speed 18 mph    
Visibility 10 miles    
Events      
Averages and records for this station are not official NWS values.
T = Trace of Precipitation, MM = Missing Value Source: NWS Daily Summary

Daily Weather History Graph

Daily Weather History Graph

Search for Another Location

Airport or City:

Trip Planner

Search our weather history database for the weather conditions in past years. The results will help you decide how hot, cold, wet, or windy it might be!

Date:

Astronomy

Sep. 30, 2012 Rise Set
Actual Time 7:29 AM EDT 7:16 PM EDT
Civil Twilight 7:02 AM EDT 7:43 PM EDT
Nautical Twilight 6:30 AM EDT 8:14 PM EDT
Astronomical Twilight 5:58 AM EDT 8:46 PM EDT
Moon 7:19 PM EDT (9/30) 7:59 AM EDT (9/30)
Length of Visible Light 12h 41m
Length of Day
11h 47m
Full, 100% of the Moon is Illuminated
Sep 30
Full
Oct 8
Last Quarter
Oct 15
New
Oct 21
First Quarter
Oct 29
Full

Hourly Weather History & Observations

Time (EDT) Temp. Windchill Dew Point Humidity Pressure Visibility Wind Dir Wind Speed Gust Speed Precip Events Conditions
12:15 AM 47.7 °F - 43.2 °F 84% 29.95 in 10.0 mi SW 3.5 mph - N/A   Clear
12:34 AM 47.3 °F - 43.3 °F 86% 29.94 in 10.0 mi Calm Calm - N/A   Clear
12:54 AM 46.8 °F - 43.0 °F 87% 29.94 in 10.0 mi Calm Calm - N/A   Clear
1:15 AM 46.2 °F 43.3 °F 42.8 °F 88% 29.93 in 10.0 mi SW 5.8 mph - N/A   Clear
1:34 AM 45.7 °F - 42.8 °F 90% 29.92 in 10.0 mi Calm Calm - N/A   Clear
1:54 AM 45.7 °F 44.4 °F 42.8 °F 90% 29.92 in 10.0 mi WSW 3.5 mph - N/A   Clear
2:15 AM 45.3 °F 44.0 °F 42.8 °F 91% 29.92 in 10.0 mi SW 3.5 mph - N/A   Clear
2:34 AM 45.3 °F 44.0 °F 42.3 °F 89% 29.92 in 10.0 mi SW 3.5 mph - N/A   Clear
2:55 AM 44.1 °F - 41.4 °F 90% 29.91 in 10.0 mi Calm Calm - N/A   Clear
3:14 AM 44.6 °F 42.2 °F 41.7 °F 90% 29.91 in 10.0 mi WSW 4.6 mph - N/A   Clear
3:34 AM 46.2 °F 45.0 °F 41.5 °F 84% 29.90 in 10.0 mi West 3.5 mph - N/A   Clear
3:55 AM 47.1 °F - 41.7 °F 81% 29.90 in 10.0 mi Calm Calm - N/A   Clear
4:14 AM 46.8 °F - 40.5 °F 79% 29.89 in 10.0 mi WSW 3.5 mph - N/A   Clear
4:34 AM 45.3 °F 43.0 °F 41.0 °F 85% 29.88 in 10.0 mi WSW 4.6 mph - N/A   Clear
4:55 AM 46.2 °F - 40.8 °F 81% 29.88 in 10.0 mi Calm Calm - N/A   Clear
5:14 AM 46.6 °F - 40.8 °F 80% 29.87 in 10.0 mi Calm Calm - N/A   Clear
5:34 AM 46.9 °F - 40.6 °F 79% 29.87 in 10.0 mi WSW 3.5 mph - N/A   Clear
5:55 AM 44.8 °F 43.3 °F 40.3 °F 84% 29.87 in 10.0 mi WSW 3.5 mph - N/A   Clear
6:14 AM 46.6 °F - 41.2 °F 81% 29.86 in 10.0 mi Calm Calm - N/A   Clear
6:34 AM 44.4 °F - 40.6 °F 87% 29.86 in 10.0 mi Calm Calm - N/A   Clear
6:55 AM 43.5 °F 40.9 °F 40.5 °F 89% 29.87 in 10.0 mi NE 4.6 mph - N/A   Clear
7:14 AM 43.3 °F - 40.5 °F 90% 29.87 in 10.0 mi Calm Calm - N/A   Clear
7:34 AM 41.2 °F - 39.2 °F 93% 29.87 in 7.0 mi Calm Calm - N/A   Clear
7:55 AM 40.3 °F - 38.7 °F 94% 29.88 in 7.0 mi Calm Calm - N/A   Clear
8:14 AM 41.7 °F - 39.9 °F 93% 29.88 in 7.0 mi Calm Calm - N/A   Clear
8:34 AM 45.7 °F - 44.1 °F 94% 29.88 in 7.0 mi Calm Calm - N/A   Clear
8:55 AM 50.2 °F - 44.8 °F 82% 29.88 in 10.0 mi WNW 3.5 mph - N/A   Clear
9:14 AM 51.3 °F - 44.6 °F 78% 29.88 in 10.0 mi NNW 4.6 mph - N/A   Clear
9:34 AM 52.9 °F - 46.0 °F 78% 29.88 in 10.0 mi North 4.6 mph - N/A   Scattered Clouds
9:55 AM 54.7 °F - 47.8 °F 78% 29.88 in 10.0 mi North 5.8 mph - N/A   Scattered Clouds
10:14 AM 56.1 °F - 49.1 °F 77% 29.89 in 10.0 mi NNE 8.1 mph - N/A   Mostly Cloudy
10:34 AM 57.2 °F - 49.5 °F 75% 29.89 in 10.0 mi NNE 9.2 mph - N/A   Mostly Cloudy
10:55 AM 59.0 °F - 50.0 °F 72% 29.89 in 10.0 mi NNE 10.4 mph - N/A   Clear
11:14 AM 60.6 °F - 50.4 °F 69% 29.89 in 10.0 mi NE 6.9 mph - N/A   Clear
11:34 AM 61.9 °F - 48.7 °F 62% 29.89 in 10.0 mi North 9.2 mph - N/A   Clear
11:55 AM 63.3 °F - 46.8 °F 55% 29.89 in 10.0 mi North 11.5 mph - N/A   Clear
12:14 PM 64.2 °F - 45.3 °F 50% 29.90 in 10.0 mi North 10.4 mph - N/A   Clear
12:34 PM 64.6 °F - 45.0 °F 49% 29.90 in 10.0 mi North 12.7 mph 16.1 mph N/A   Scattered Clouds
12:55 PM 65.3 °F - 44.6 °F 47% 29.90 in 10.0 mi North 12.7 mph 17.3 mph N/A   Clear
1:14 PM 64.2 °F - 44.1 °F 48% 29.91 in 10.0 mi North 12.7 mph 18.4 mph N/A   Scattered Clouds
1:34 PM 65.5 °F - 42.6 °F 43% 29.90 in 10.0 mi North 12.7 mph 16.1 mph N/A   Scattered Clouds
1:54 PM 66.4 °F - 42.1 °F 41% 29.89 in 10.0 mi North 12.7 mph 18.4 mph N/A   Scattered Clouds
2:14 PM 66.2 °F - 39.0 °F 37% 29.89 in 10.0 mi NE 8.1 mph 17.3 mph N/A   Scattered Clouds
2:35 PM 66.6 °F - 39.9 °F 38% 29.89 in 10.0 mi NNE 8.1 mph - N/A   Mostly Cloudy
2:54 PM 66.2 °F - 39.6 °F 38% 29.88 in 10.0 mi NNE 8.1 mph - N/A   Scattered Clouds
3:15 PM 66.2 °F - 37.2 °F 34% 29.88 in 10.0 mi NW 5.8 mph - N/A   Clear
3:34 PM 66.4 °F - 38.3 °F 36% 29.88 in 10.0 mi NE 8.1 mph - N/A   Scattered Clouds
3:54 PM 66.9 °F - 38.8 °F 36% 29.87 in 10.0 mi North 12.7 mph - N/A   Clear
4:14 PM 66.4 °F - 39.9 °F 38% 29.87 in 10.0 mi North 12.7 mph - N/A   Scattered Clouds
4:34 PM 66.6 °F - 39.9 °F 38% 29.86 in 10.0 mi NNE 9.2 mph - N/A   Clear
4:55 PM 66.4 °F - 39.2 °F 37% 29.87 in 10.0 mi NE 10.4 mph - N/A   Clear
5:14 PM 66.2 °F - 37.6 °F 35% 29.87 in 10.0 mi ENE 10.4 mph - N/A   Clear
5:34 PM 65.5 °F - 37.0 °F 35% 29.88 in 10.0 mi NE 9.2 mph - N/A   Clear
5:54 PM 65.1 °F - 37.0 °F 35% 29.88 in 10.0 mi ENE 9.2 mph - 0.01 in   Clear
6:14 PM 64.4 °F - 38.7 °F 39% 29.88 in 10.0 mi ENE 9.2 mph - N/A   Clear
6:35 PM 62.8 °F - 39.4 °F 42% 29.88 in 10.0 mi NE 8.1 mph - N/A   Clear
6:54 PM 61.7 °F - 37.9 °F 41% 29.89 in 10.0 mi NE 6.9 mph - N/A   Clear
7:14 PM 57.9 °F - 39.7 °F 51% 29.91 in 10.0 mi NE 3.5 mph - N/A   Clear
7:34 PM 56.1 °F - 39.6 °F 54% 29.92 in 10.0 mi NNE 3.5 mph - N/A   Clear
7:54 PM 56.5 °F - 39.2 °F 52% 29.92 in 10.0 mi NNE 5.8 mph - N/A   Clear
8:14 PM 55.0 °F - 39.9 °F 57% 29.92 in 10.0 mi NE 4.6 mph - N/A   Clear
8:34 PM 54.1 °F - 41.0 °F 61% 29.92 in 10.0 mi NE 5.8 mph - N/A   Clear
8:54 PM 53.2 °F - 41.2 °F 64% 29.93 in 10.0 mi NNE 4.6 mph - N/A   Clear
9:14 PM 52.7 °F - 41.5 °F 66% 29.94 in 10.0 mi NNE 4.6 mph - N/A   Clear
9:34 PM 51.8 °F - 41.9 °F 69% 29.94 in 10.0 mi NNE 4.6 mph - N/A   Clear
9:54 PM 50.9 °F - 42.1 °F 72% 29.95 in 10.0 mi NNE 4.6 mph - N/A   Clear
10:14 PM 50.9 °F - 42.4 °F 73% 29.95 in 10.0 mi NE 5.8 mph - N/A   Clear
10:34 PM 50.2 °F - 42.3 °F 74% 29.95 in 10.0 mi Calm Calm - N/A   Clear
10:54 PM 49.1 °F - 42.4 °F 78% 29.95 in 10.0 mi ENE 3.5 mph - N/A   Clear
11:14 PM 49.6 °F - 42.6 °F 77% 29.95 in 10.0 mi NE 4.6 mph - N/A   Clear
11:34 PM 48.6 °F - 42.8 °F 80% 29.95 in 10.0 mi NE 3.5 mph - N/A   Clear